Location: Baia Mare
(47.6567°N, 23.5850°E)
Time: 03:12:17
(UTC+03:00)

ISS - Pass Details

Date: 06 August 2018
Orbit: 402 x 408 km, 51.6° (Epoch: 17 July)

Event Time Altitude Azimuth Distance (km) Brightness Sun altitude
Rises 22:51:32 0° 281° (W) 2,321 0.9 -16.5°
Reaches altitude 10° 22:55:04 10° 240° (WSW) 1,457 -0.9 -16.9°
Maximum altitude 22:55:49 11° 227° (SW) 1,419 -1.1 -17.0°
Enters shadow 22:56:23 10° 217° (SW) 1,439 -1.2 -17.0°
